Time,TemperatureF,DewpointF,PressureIn,WindDirection,WindDirectionDegrees,WindSpeedMPH,WindSpeedGustMPH,Humidity,HourlyPrecipIn,Conditions,Clouds,dailyrainin,SoftwareType,DateUTC
2013-03-07 00:12:00,25.0,22.0,30.39,WNW,300,1.0,5.0,87,0.00,,,0.04,weatherlink.com 1.10,2013-03-07 06:12:00,
2013-03-07 00:27:00,25.0,22.0,30.39,WNW,292,0.0,4.0,87,0.00,,,0.04,weatherlink.com 1.10,2013-03-07 06:27:00,
2013-03-07 00:42:00,25.1,22.0,30.40,WNW,300,3.0,5.0,86,0.00,,,0.04,weatherlink.com 1.10,2013-03-07 06:42:00,
2013-03-07 00:57:00,25.1,22.0,30.41,WNW,298,2.0,4.0,86,0.00,,,0.04,weatherlink.com 1.10,2013-03-07 06:57:00,
2013-03-07 01:12:00,25.1,22.0,30.41,WNW,294,0.0,4.0,86,0.00,,,0.04,weatherlink.com 1.10,2013-03-07 07:12:00,
2013-03-07 01:27:00,25.0,21.0,30.42,NW,305,2.0,4.0,86,0.00,,,0.00,weatherlink.com 1.10,2013-03-07 07:27:00,
2013-03-07 01:42:00,25.0,21.0,30.42,WNW,294,3.0,5.0,86,0.00,,,0.00,weatherlink.com 1.10,2013-03-07 07:42:00,
2013-03-07 01:57:00,25.0,21.0,30.42,WNW,303,2.0,3.0,86,0.00,,,0.00,weatherlink.com 1.10,2013-03-07 07:57:00,
2013-03-07 02:12:00,24.9,21.0,30.42,WNW,301,0.0,3.0,86,0.00,,,0.00,weatherlink.com 1.10,2013-03-07 08:12:00,
2013-03-07 02:27:00,24.9,22.0,30.42,NW,315,1.0,3.0,87,0.00,,,0.00,weatherlink.com 1.10,2013-03-07 08:27:00,
2013-03-07 02:42:00,24.7,21.0,30.42,WNW,295,2.0,4.0,86,0.00,,,0.00,weatherlink.com 1.10,2013-03-07 08:42:00,
2013-03-07 02:58:00,24.6,21.0,30.42,WNW,303,2.0,4.0,87,0.00,,,0.00,weatherlink.com 1.10,2013-03-07 08:58:00,
2013-03-07 03:13:00,24.6,21.0,30.42,NW,304,1.0,3.0,86,0.00,,,0.00,weatherlink.com 1.10,2013-03-07 09:13:00,
2013-03-07 03:28:00,24.5,21.0,30.42,NNW,330,1.0,3.0,86,0.00,,,0.00,weatherlink.com 1.10,2013-03-07 09:28:00,
2013-03-07 03:43:00,24.5,21.0,30.42,NNW,329,1.0,3.0,87,0.00,,,0.00,weatherlink.com 1.10,2013-03-07 09:43:00,
2013-03-07 03:58:00,24.5,21.0,30.43,NNW,336,1.0,3.0,87,0.00,,,0.00,weatherlink.com 1.10,2013-03-07 09:58:00,
2013-03-07 04:13:00,24.4,21.0,30.42,NW,324,2.0,3.0,87,0.00,,,0.00,weatherlink.com 1.10,2013-03-07 10:13:00,
2013-03-07 04:28:00,24.4,21.0,30.41,NW,323,0.0,3.0,88,0.00,,,0.00,weatherlink.com 1.10,2013-03-07 10:28:00,
2013-03-07 04:43:00,24.4,21.0,30.41,NW,323,1.0,2.0,87,0.00,,,0.00,weatherlink.com 1.10,2013-03-07 10:43:00,
2013-03-07 04:58:00,24.3,21.0,30.41,WNW,286,1.0,3.0,87,0.00,,,0.00,weatherlink.com 1.10,2013-03-07 10:58:00,
2013-03-07 05:13:00,24.2,21.0,30.41,WNW,286,1.0,2.0,87,0.00,,,0.00,weatherlink.com 1.10,2013-03-07 11:13:00,
2013-03-07 05:28:00,24.1,21.0,30.42,NW,306,1.0,4.0,88,0.00,,,0.00,weatherlink.com 1.10,2013-03-07 11:28:00,
2013-03-07 05:43:00,24.0,21.0,30.42,NNW,334,2.0,3.0,88,0.00,,,0.00,weatherlink.com 1.10,2013-03-07 11:43:00,
2013-03-07 05:58:00,24.0,21.0,30.43,NNW,334,1.0,3.0,88,0.00,,,0.00,weatherlink.com 1.10,2013-03-07 11:58:00,
2013-03-07 06:14:00,24.0,21.0,30.43,NNW,334,0.0,2.0,88,0.00,,,0.00,weatherlink.com 1.10,2013-03-07 12:14:00,
2013-03-07 06:29:00,24.0,21.0,30.43,NNW,334,0.0,2.0,88,0.00,,,0.00,weatherlink.com 1.10,2013-03-07 12:29:00,
2013-03-07 06:44:00,24.0,21.0,30.43,NNW,334,0.0,2.0,88,0.00,,,0.00,weatherlink.com 1.10,2013-03-07 12:44:00,
2013-03-07 06:59:00,24.2,21.0,30.44,NNW,334,0.0,2.0,88,0.00,,,0.00,weatherlink.com 1.10,2013-03-07 12:59:00,
2013-03-07 07:14:00,24.5,21.0,30.44,NNW,336,1.0,3.0,87,0.00,,,0.00,weatherlink.com 1.10,2013-03-07 13:14:00,
2013-03-07 07:29:00,24.8,22.0,30.45,NNW,335,0.0,3.0,87,0.00,,,0.00,weatherlink.com 1.10,2013-03-07 13:29:00,
2013-03-07 07:44:00,25.3,22.0,30.45,NNW,335,0.0,2.0,86,0.00,,,0.00,weatherlink.com 1.10,2013-03-07 13:44:00,
2013-03-07 07:59:00,25.8,22.0,30.46,NNW,335,0.0,0.0,85,0.00,,,0.00,weatherlink.com 1.10,2013-03-07 13:59:00,
2013-03-07 08:14:00,25.9,22.0,30.45,WNW,293,2.0,4.0,85,0.00,,,0.00,weatherlink.com 1.10,2013-03-07 14:14:00,
2013-03-07 08:29:00,26.5,22.0,30.46,WNW,294,1.0,2.0,84,0.00,,,0.00,weatherlink.com 1.10,2013-03-07 14:29:00,
2013-03-07 08:44:00,26.7,23.0,30.46,NW,307,3.0,4.0,84,0.00,,,0.00,weatherlink.com 1.10,2013-03-07 14:44:00,
2013-03-07 09:14:00,28.8,24.0,30.46,SW,222,4.0,4.0,81,0.00,,,0.00,weatherlink.com 1.10,2013-03-07 15:14:00,
2013-03-07 09:29:00,29.8,23.0,30.46,SW,222,2.0,6.0,77,0.00,,,0.00,weatherlink.com 1.10,2013-03-07 15:29:00,
2013-03-07 09:45:00,30.0,23.0,30.47,SSW,194,3.0,6.0,76,0.00,,,0.00,weatherlink.com 1.10,2013-03-07 15:45:00,
2013-03-07 10:00:00,30.2,24.0,30.47,SSW,203,5.0,6.0,76,0.00,,,0.00,weatherlink.com 1.10,2013-03-07 16:00:00,
2013-03-07 10:15:00,30.0,24.0,30.46,SE,137,3.0,8.0,77,0.00,,,0.00,weatherlink.com 1.10,2013-03-07 16:15:00,
2013-03-07 10:30:00,30.4,24.0,30.46,SSW,203,4.0,9.0,76,0.00,,,0.00,weatherlink.com 1.10,2013-03-07 16:30:00,
2013-03-07 10:45:00,30.9,24.0,30.46,SSW,202,6.0,8.0,76,0.00,,,0.00,weatherlink.com 1.10,2013-03-07 16:45:00,
2013-03-07 11:00:00,31.4,24.0,30.46,SSW,194,5.0,8.0,74,0.00,,,0.00,weatherlink.com 1.10,2013-03-07 17:00:00,
2013-03-07 11:15:00,31.6,24.0,30.46,SW,227,1.0,10.0,74,0.01,,,0.01,weatherlink.com 1.10,2013-03-07 17:15:00,
2013-03-07 11:30:00,32.0,24.0,30.46,SSW,194,3.0,9.0,73,0.01,,,0.01,weatherlink.com 1.10,2013-03-07 17:30:00,
2013-03-07 11:45:00,32.0,24.0,30.45,SW,225,7.0,9.0,73,0.01,,,0.01,weatherlink.com 1.10,2013-03-07 17:45:00,
2013-03-07 12:00:00,32.3,24.0,30.45,SSE,165,7.0,9.0,72,0.01,,,0.01,weatherlink.com 1.10,2013-03-07 18:00:00,
2013-03-07 12:15:00,32.8,25.0,30.45,South,187,4.0,10.0,72,0.00,,,0.01,weatherlink.com 1.10,2013-03-07 18:15:00,
2013-03-07 12:30:00,32.5,24.0,30.44,SSW,200,4.0,10.0,72,0.01,,,0.02,weatherlink.com 1.10,2013-03-07 18:30:00,
2013-03-07 12:45:00,33.1,25.0,30.43,SSW,197,2.0,7.0,72,0.01,,,0.02,weatherlink.com 1.10,2013-03-07 18:45:00,
2013-03-07 13:00:00,33.5,25.0,30.43,SSW,209,3.0,7.0,71,0.01,,,0.02,weatherlink.com 1.10,2013-03-07 19:00:00,
2013-03-07 13:16:00,34.0,25.0,30.42,SSW,200,3.0,10.0,70,0.01,,,0.02,weatherlink.com 1.10,2013-03-07 19:16:00,
2013-03-07 13:31:00,34.1,26.0,30.43,South,176,4.0,8.0,71,0.00,,,0.02,weatherlink.com 1.10,2013-03-07 19:31:00,
2013-03-07 13:46:00,34.8,25.0,30.42,SW,223,5.0,8.0,68,0.00,,,0.02,weatherlink.com 1.10,2013-03-07 19:46:00,
2013-03-07 14:01:00,34.7,25.0,30.42,SSW,195,2.0,11.0,69,0.00,,,0.02,weatherlink.com 1.10,2013-03-07 20:01:00,
2013-03-07 14:16:00,34.7,25.0,30.42,SW,219,3.0,7.0,69,0.00,,,0.02,weatherlink.com 1.10,2013-03-07 20:16:00,
2013-03-07 14:31:00,35.5,26.0,30.43,South,178,4.0,6.0,68,0.00,,,0.02,weatherlink.com 1.10,2013-03-07 20:31:00,
2013-03-07 14:46:00,35.7,26.0,30.43,SSE,155,1.0,5.0,68,0.00,,,0.02,weatherlink.com 1.10,2013-03-07 20:46:00,
2013-03-07 15:01:00,34.6,26.0,30.43,ESE,106,5.0,8.0,71,0.00,,,0.02,weatherlink.com 1.10,2013-03-07 21:01:00,
2013-03-07 15:16:00,33.4,26.0,30.42,ESE,115,5.0,9.0,73,0.00,,,0.02,weatherlink.com 1.10,2013-03-07 21:16:00,
2013-03-07 15:31:00,33.3,26.0,30.41,ESE,119,4.0,8.0,74,0.00,,,0.02,weatherlink.com 1.10,2013-03-07 21:31:00,
2013-03-07 15:46:00,33.1,26.0,30.41,SE,128,5.0,7.0,74,0.00,,,0.02,weatherlink.com 1.10,2013-03-07 21:46:00,
2013-03-07 16:01:00,34.2,26.0,30.41,SE,124,3.0,7.0,73,0.00,,,0.02,weatherlink.com 1.10,2013-03-07 22:01:00,
2013-03-07 16:17:00,34.2,26.0,30.41,ESE,117,4.0,9.0,72,0.00,,,0.02,weatherlink.com 1.10,2013-03-07 22:17:00,
2013-03-07 16:32:00,33.2,26.0,30.41,ESE,118,4.0,8.0,76,0.00,,,0.02,weatherlink.com 1.10,2013-03-07 22:32:00,
2013-03-07 16:47:00,33.0,26.0,30.41,ESE,113,5.0,8.0,75,0.00,,,0.02,weatherlink.com 1.10,2013-03-07 22:47:00,
2013-03-07 17:02:00,32.0,25.0,30.41,ESE,121,4.0,8.0,76,0.00,,,0.02,weatherlink.com 1.10,2013-03-07 23:02:00,
2013-03-07 17:17:00,31.9,25.0,30.42,ESE,115,2.0,5.0,77,0.00,,,0.02,weatherlink.com 1.10,2013-03-07 23:17:00,
2013-03-07 17:32:00,31.4,25.0,30.42,ESE,123,2.0,4.0,78,0.00,,,0.02,weatherlink.com 1.10,2013-03-07 23:32:00,
2013-03-07 17:47:00,30.4,25.0,30.43,ESE,118,1.0,3.0,80,0.00,,,0.02,weatherlink.com 1.10,2013-03-07 23:47:00,
2013-03-07 18:02:00,29.5,24.0,30.42,ESE,118,2.0,3.0,80,0.00,,,0.02,weatherlink.com 1.10,2013-03-08 00:02:00,
2013-03-07 18:17:00,29.1,24.0,30.42,ESE,118,1.0,3.0,81,0.00,,,0.02,weatherlink.com 1.10,2013-03-08 00:17:00,
2013-03-07 18:32:00,29.2,24.0,30.42,SE,133,1.0,3.0,82,0.00,,,0.02,weatherlink.com 1.10,2013-03-08 00:32:00,
2013-03-07 18:47:00,29.2,24.0,30.43,SSE,165,0.0,3.0,82,0.00,,,0.02,weatherlink.com 1.10,2013-03-08 00:47:00,
2013-03-07 19:02:00,29.2,24.0,30.42,SE,129,3.0,4.0,81,0.00,,,0.02,weatherlink.com 1.10,2013-03-08 01:02:00,
2013-03-07 19:17:00,28.3,24.0,30.42,SE,129,1.0,4.0,82,0.00,,,0.02,weatherlink.com 1.10,2013-03-08 01:17:00,
2013-03-07 19:33:00,27.7,23.0,30.43,ESE,121,0.0,3.0,83,0.00,,,0.02,weatherlink.com 1.10,2013-03-08 01:33:00,
2013-03-07 19:48:00,27.2,23.0,30.42,SSE,159,4.0,5.0,83,0.00,,,0.02,weatherlink.com 1.10,2013-03-08 01:48:00,
2013-03-07 20:03:00,26.4,22.0,30.42,SE,133,3.0,4.0,84,0.00,,,0.02,weatherlink.com 1.10,2013-03-08 02:03:00,
2013-03-07 20:18:00,26.1,22.0,30.43,SE,141,3.0,5.0,85,0.00,,,0.02,weatherlink.com 1.10,2013-03-08 02:18:00,
2013-03-07 20:33:00,26.6,23.0,30.43,SE,134,1.0,4.0,86,0.00,,,0.02,weatherlink.com 1.10,2013-03-08 02:33:00,
2013-03-07 20:48:00,27.0,23.0,30.43,South,174,0.0,3.0,85,0.00,,,0.02,weatherlink.com 1.10,2013-03-08 02:48:00,
2013-03-07 21:03:00,27.5,23.0,30.43,SE,136,1.0,5.0,84,0.00,,,0.02,weatherlink.com 1.10,2013-03-08 03:03:00,
2013-03-07 21:18:00,26.7,23.0,30.43,SSE,162,2.0,3.0,84,0.00,,,0.02,weatherlink.com 1.10,2013-03-08 03:18:00,
2013-03-07 21:33:00,26.1,22.0,30.43,ESE,119,2.0,5.0,85,0.00,,,0.02,weatherlink.com 1.10,2013-03-08 03:33:00,
2013-03-07 21:48:00,25.5,22.0,30.43,SE,138,3.0,5.0,85,0.00,,,0.02,weatherlink.com 1.10,2013-03-08 03:48:00,
2013-03-07 22:03:00,25.0,21.0,30.43,SE,134,3.0,7.0,86,0.00,,,0.02,weatherlink.com 1.10,2013-03-08 04:03:00,
2013-03-07 22:18:00,25.3,22.0,30.43,SSE,153,0.0,5.0,87,0.00,,,0.02,weatherlink.com 1.10,2013-03-08 04:18:00,
2013-03-07 22:33:00,26.3,23.0,30.45,South,190,3.0,6.0,86,0.00,,,0.02,weatherlink.com 1.10,2013-03-08 04:33:00,
2013-03-07 22:48:00,26.4,23.0,30.44,SSE,154,1.0,5.0,85,0.00,,,0.02,weatherlink.com 1.10,2013-03-08 04:48:00,
2013-03-07 23:04:00,26.2,23.0,30.44,SE,146,2.0,5.0,86,0.00,,,0.02,weatherlink.com 1.10,2013-03-08 05:04:00,
2013-03-07 23:19:00,25.6,22.0,30.44,ESE,121,4.0,5.0,85,0.00,,,0.02,weatherlink.com 1.10,2013-03-08 05:19:00,
2013-03-07 23:34:00,24.4,21.0,30.44,SE,134,1.0,4.0,86,0.00,,,0.02,weatherlink.com 1.10,2013-03-08 05:34:00,
2013-03-07 23:49:00,24.2,21.0,30.44,SE,130,1.0,3.0,86,0.00,,,0.02,weatherlink.com 1.10,2013-03-08 05:49:00,